Time,TemperatureF,DewpointF,PressureIn,WindDirection,WindDirectionDegrees,WindSpeedMPH,WindSpeedGustMPH,Humidity,HourlyPrecipIn,Conditions,Clouds,dailyrainin,SoftwareType,DateUTC
2013-03-06 00:02:00,30.0,21.0,30.18,NW,320,17.0,27.0,68,-99.99,,,-99.99,,2013-03-06 06:02:00,
2013-03-06 00:11:00,30.0,21.0,30.18,NW,320,17.0,27.0,68,-99.99,,,-99.99,,2013-03-06 06:11:00,
2013-03-06 00:22:00,32.0,19.0,30.18,NW,320,17.0,25.0,59,-99.99,,,-99.99,,2013-03-06 06:22:00,
2013-03-06 00:31:00,32.0,19.0,30.18,NW,310,16.0,24.0,59,-99.99,,,-99.99,,2013-03-06 06:31:00,
2013-03-06 00:42:00,30.0,19.0,30.18,NW,310,13.0,24.0,63,-99.99,,,-99.99,,2013-03-06 06:42:00,
2013-03-06 00:52:00,30.0,21.0,30.19,NW,310,15.0,23.0,68,-99.99,,,-99.99,,2013-03-06 06:52:00,
2013-03-06 01:01:00,30.0,21.0,30.20,NW,310,18.0,24.0,68,-99.99,,,-99.99,,2013-03-06 07:01:00,
2013-03-06 01:11:00,30.0,21.0,30.20,NW,310,18.0,24.0,68,-99.99,,,-99.99,,2013-03-06 07:11:00,
2013-03-06 01:22:00,30.0,21.0,30.21,NW,310,17.0,27.0,68,-99.99,,,-99.99,,2013-03-06 07:22:00,
2013-03-06 01:32:00,30.0,21.0,30.21,NW,310,17.0,-999.0,68,-99.99,,,-99.99,,2013-03-06 07:32:00,
2013-03-06 01:42:00,30.0,21.0,30.22,NW,310,15.0,24.0,68,-99.99,,,-99.99,,2013-03-06 07:42:00,
2013-03-06 01:52:00,30.0,21.0,30.22,NW,310,15.0,23.0,68,-99.99,,,-99.99,,2013-03-06 07:52:00,
2013-03-06 02:01:00,30.0,21.0,30.22,NW,310,17.0,23.0,68,-99.99,,,-99.99,,2013-03-06 08:01:00,
2013-03-06 02:11:00,30.0,21.0,30.22,NW,310,17.0,23.0,68,-99.99,,,-99.99,,2013-03-06 08:11:00,
2013-03-06 02:21:00,30.0,21.0,30.22,NW,320,15.0,-999.0,68,-99.99,,,-99.99,,2013-03-06 08:21:00,
2013-03-06 02:32:00,30.0,21.0,30.22,NW,320,17.0,24.0,68,-99.99,,,-99.99,,2013-03-06 08:32:00,
2013-03-06 02:42:00,30.0,21.0,30.22,NW,320,15.0,21.0,68,-99.99,,,-99.99,,2013-03-06 08:42:00,
2013-03-06 02:52:00,30.0,21.0,30.23,NW,320,14.0,-999.0,68,-99.99,,,-99.99,,2013-03-06 08:52:00,
2013-03-06 03:01:00,30.0,21.0,30.23,NW,320,14.0,-999.0,68,-99.99,,,-99.99,,2013-03-06 09:01:00,
2013-03-06 03:12:00,30.0,21.0,30.23,NW,320,14.0,-999.0,68,-99.99,,,-99.99,,2013-03-06 09:12:00,
2013-03-06 03:21:00,30.0,21.0,30.23,NW,320,14.0,21.0,68,-99.99,,,-99.99,,2013-03-06 09:21:00,
2013-03-06 03:31:00,30.0,21.0,30.24,NW,320,12.0,-999.0,68,-99.99,,,-99.99,,2013-03-06 09:31:00,
2013-03-06 03:42:00,30.0,21.0,30.24,NW,320,14.0,-999.0,68,-99.99,,,-99.99,,2013-03-06 09:42:00,
2013-03-06 03:52:00,30.0,21.0,30.25,NW,320,14.0,-999.0,68,-99.99,,,-99.99,,2013-03-06 09:52:00,
2013-03-06 04:01:00,30.0,21.0,30.25,NNW,330,13.0,-999.0,68,-99.99,,,-99.99,,2013-03-06 10:01:00,
2013-03-06 04:11:00,30.0,21.0,30.25,NNW,330,13.0,-999.0,68,-99.99,,,-99.99,,2013-03-06 10:11:00,
2013-03-06 04:21:00,30.0,21.0,30.27,NNW,330,17.0,25.0,68,-99.99,,,-99.99,,2013-03-06 10:21:00,
2013-03-06 04:32:00,30.0,21.0,30.27,NNW,330,18.0,27.0,68,-99.99,,,-99.99,,2013-03-06 10:32:00,
2013-03-06 04:42:00,30.0,19.0,30.28,NNW,330,24.0,30.0,63,-99.99,,,-99.99,,2013-03-06 10:42:00,
2013-03-06 04:52:00,30.0,19.0,30.28,NNW,330,20.0,25.0,63,-99.99,,,-99.99,,2013-03-06 10:52:00,
2013-03-06 05:02:00,30.0,19.0,30.28,NNW,340,21.0,27.0,63,-99.99,,,-99.99,,2013-03-06 11:02:00,
2013-03-06 05:11:00,30.0,19.0,30.28,NNW,340,21.0,27.0,63,-99.99,,,-99.99,,2013-03-06 11:11:00,
2013-03-06 05:22:00,30.0,19.0,30.29,NNW,340,20.0,-999.0,63,-99.99,,,-99.99,,2013-03-06 11:22:00,
2013-03-06 05:32:00,30.0,19.0,30.30,NNW,330,15.0,-999.0,63,-99.99,,,-99.99,,2013-03-06 11:32:00,
2013-03-06 05:42:00,30.0,19.0,30.30,NW,320,18.0,24.0,63,-99.99,,,-99.99,,2013-03-06 11:42:00,
2013-03-06 05:52:00,28.0,19.0,30.30,NNW,330,22.0,28.0,68,-99.99,,,-99.99,,2013-03-06 11:52:00,
2013-03-06 06:02:00,28.0,19.0,30.31,NNW,340,20.0,27.0,68,-99.99,,,-99.99,,2013-03-06 12:02:00,
2013-03-06 06:11:00,28.0,19.0,30.31,NNW,340,20.0,27.0,68,-99.99,,,-99.99,,2013-03-06 12:11:00,
2013-03-06 06:21:00,28.0,19.0,30.32,NNW,340,15.0,23.0,68,-99.99,,,-99.99,,2013-03-06 12:21:00,
2013-03-06 06:32:00,28.0,19.0,30.32,NNW,340,15.0,23.0,68,-99.99,,,-99.99,,2013-03-06 12:32:00,
2013-03-06 06:42:00,28.0,19.0,30.33,NNW,330,16.0,24.0,68,-99.99,,,-99.99,,2013-03-06 12:42:00,
2013-03-06 06:52:00,28.0,19.0,30.33,NNW,330,14.0,-999.0,68,-99.99,,,-99.99,,2013-03-06 12:52:00,
2013-03-06 07:02:00,28.0,19.0,30.33,NNW,340,16.0,22.0,68,-99.99,,,-99.99,,2013-03-06 13:02:00,
2013-03-06 07:12:00,28.0,19.0,30.33,NNW,340,16.0,22.0,68,-99.99,,,-99.99,,2013-03-06 13:12:00,
2013-03-06 07:22:00,28.0,19.0,30.33,NNW,340,16.0,22.0,68,-99.99,,,-99.99,,2013-03-06 13:22:00,
2013-03-06 07:32:00,28.0,19.0,30.33,NW,310,14.0,-999.0,68,-99.99,,,-99.99,,2013-03-06 13:32:00,
2013-03-06 07:42:00,28.0,19.0,30.33,NW,310,14.0,-999.0,68,-99.99,,,-99.99,,2013-03-06 13:42:00,
2013-03-06 07:52:00,28.0,19.0,30.35,NW,320,10.0,-999.0,68,-99.99,,,-99.99,,2013-03-06 13:52:00,
2013-03-06 08:01:00,28.0,19.0,30.35,NW,320,10.0,16.0,68,-99.99,,,-99.99,,2013-03-06 14:01:00,
2013-03-06 08:11:00,28.0,19.0,30.35,NW,320,10.0,16.0,68,-99.99,,,-99.99,,2013-03-06 14:11:00,
2013-03-06 08:22:00,30.0,19.0,30.35,NW,320,10.0,-999.0,63,-99.99,,,-99.99,,2013-03-06 14:22:00,
2013-03-06 08:32:00,30.0,19.0,30.36,NW,320,8.0,-999.0,63,-99.99,,,-99.99,,2013-03-06 14:32:00,
2013-03-06 08:42:00,30.0,19.0,30.36,NW,320,8.0,-999.0,63,-99.99,,,-99.99,,2013-03-06 14:42:00,
2013-03-06 08:52:00,30.0,19.0,30.36,NW,320,12.0,-999.0,63,-99.99,,,-99.99,,2013-03-06 14:52:00,
2013-03-06 09:02:00,30.0,19.0,30.37,NNW,340,13.0,-999.0,63,-99.99,,,-99.99,,2013-03-06 15:02:00,
2013-03-06 09:11:00,30.0,19.0,30.37,NNW,340,13.0,-999.0,63,-99.99,,,-99.99,,2013-03-06 15:11:00,
2013-03-06 09:21:00,30.0,19.0,30.37,North,350,12.0,-999.0,63,-99.99,,,-99.99,,2013-03-06 15:21:00,
2013-03-06 09:32:00,30.0,19.0,30.37,North,350,12.0,-999.0,63,-99.99,,,-99.99,,2013-03-06 15:32:00,
2013-03-06 09:42:00,30.0,19.0,30.37,North,350,12.0,-999.0,63,-99.99,,,-99.99,,2013-03-06 15:42:00,
2013-03-06 09:52:00,32.0,19.0,30.37,NNW,330,10.0,-999.0,59,-99.99,,,-99.99,,2013-03-06 15:52:00,
2013-03-06 10:01:00,32.0,19.0,30.37,NNW,330,13.0,-999.0,59,-99.99,,,-99.99,,2013-03-06 16:01:00,
2013-03-06 10:11:00,32.0,19.0,30.37,NNW,330,13.0,-999.0,59,-99.99,,,-99.99,,2013-03-06 16:11:00,
2013-03-06 10:21:00,32.0,18.0,30.38,NNW,330,15.0,-999.0,54,-99.99,,,-99.99,,2013-03-06 16:21:00,
2013-03-06 10:32:00,32.0,18.0,30.38,North,350,13.0,-999.0,54,-99.99,,,-99.99,,2013-03-06 16:32:00,
2013-03-06 10:42:00,32.0,18.0,30.38,North,350,9.0,-999.0,54,-99.99,,,-99.99,,2013-03-06 16:42:00,
2013-03-06 10:52:00,32.0,18.0,30.38,North,350,9.0,-999.0,54,-99.99,,,-99.99,,2013-03-06 16:52:00,
2013-03-06 11:01:00,32.0,18.0,30.38,NNW,340,13.0,-999.0,54,-99.99,,,-99.99,,2013-03-06 17:01:00,
2013-03-06 11:11:00,32.0,18.0,30.38,NNW,340,13.0,-999.0,54,-99.99,,,-99.99,,2013-03-06 17:11:00,
2013-03-06 11:21:00,32.0,18.0,30.38,NNW,340,10.0,-999.0,54,-99.99,,,-99.99,,2013-03-06 17:21:00,
2013-03-06 11:32:00,32.0,19.0,30.38,NNW,330,10.0,-999.0,59,-99.99,,,-99.99,,2013-03-06 17:32:00,
2013-03-06 11:41:00,32.0,19.0,30.38,NNW,330,10.0,-999.0,59,-99.99,,,-99.99,,2013-03-06 17:41:00,
2013-03-06 11:53:00,32.0,19.0,30.38,NNW,340,8.0,-999.0,59,-99.99,,,-99.99,,2013-03-06 17:53:00,
2013-03-06 12:02:00,34.0,19.0,30.38,NW,320,7.0,-999.0,55,-99.99,,,-99.99,,2013-03-06 18:02:00,
2013-03-06 12:28:00,34.0,19.0,30.37,NNW,330,8.0,-999.0,55,-99.99,,,-99.99,,2013-03-06 18:28:00,
2013-03-06 12:42:00,34.0,19.0,30.37,NNW,330,7.0,-999.0,55,-99.99,,,-99.99,,2013-03-06 18:42:00,
2013-03-06 12:53:00,34.0,18.0,30.36,NNW,330,6.0,-999.0,51,-99.99,,,-99.99,,2013-03-06 18:53:00,
2013-03-06 13:02:00,34.0,19.0,30.36,NNW,330,6.0,-999.0,55,-99.99,,,-99.99,,2013-03-06 19:02:00,
2013-03-06 13:11:00,34.0,19.0,30.36,NNW,330,6.0,-999.0,55,-99.99,,,-99.99,,2013-03-06 19:11:00,
2013-03-06 13:21:00,34.0,19.0,30.35,WNW,300,5.0,-999.0,55,-99.99,,,-99.99,,2013-03-06 19:21:00,
2013-03-06 13:32:00,34.0,19.0,30.35,NW,310,8.0,-999.0,55,-99.99,,,-99.99,,2013-03-06 19:32:00,
2013-03-06 13:43:00,36.0,19.0,30.35,WNW,290,8.0,-999.0,51,-99.99,,,-99.99,,2013-03-06 19:43:00,
2013-03-06 13:53:00,34.0,19.0,30.35,WNW,300,8.0,-999.0,55,-99.99,,,-99.99,,2013-03-06 19:53:00,
2013-03-06 14:01:00,34.0,19.0,30.35,WNW,300,8.0,-999.0,55,-99.99,,,-99.99,,2013-03-06 20:01:00,
2013-03-06 14:11:00,34.0,19.0,30.35,WNW,300,8.0,-999.0,55,-99.99,,,-99.99,,2013-03-06 20:11:00,
2013-03-06 14:22:00,36.0,19.0,30.35,WNW,290,10.0,-999.0,51,-99.99,,,-99.99,,2013-03-06 20:22:00,
2013-03-06 14:32:00,36.0,19.0,30.35,WNW,290,10.0,-999.0,51,-99.99,,,-99.99,,2013-03-06 20:32:00,
2013-03-06 14:42:00,36.0,19.0,30.35,WNW,290,9.0,-999.0,51,-99.99,,,-99.99,,2013-03-06 20:42:00,
2013-03-06 14:53:00,36.0,19.0,30.35,WNW,290,9.0,-999.0,51,-99.99,,,-99.99,,2013-03-06 20:53:00,
2013-03-06 15:02:00,36.0,19.0,30.35,NW,310,8.0,-999.0,51,-99.99,,,-99.99,,2013-03-06 21:02:00,
2013-03-06 15:12:00,36.0,19.0,30.35,NW,310,8.0,-999.0,51,-99.99,,,-99.99,,2013-03-06 21:12:00,
2013-03-06 15:22:00,34.0,19.0,30.35,NW,320,9.0,-999.0,55,-99.99,,,-99.99,,2013-03-06 21:22:00,
2013-03-06 15:32:00,34.0,19.0,30.35,NW,320,9.0,-999.0,55,-99.99,,,-99.99,,2013-03-06 21:32:00,
2013-03-06 15:42:00,34.0,19.0,30.35,NW,320,9.0,-999.0,55,-99.99,,,-99.99,,2013-03-06 21:42:00,
2013-03-06 15:52:00,34.0,19.0,30.35,NW,310,9.0,-999.0,55,-99.99,,,-99.99,,2013-03-06 21:52:00,
2013-03-06 16:01:00,34.0,19.0,30.35,NW,310,9.0,-999.0,55,-99.99,,,-99.99,,2013-03-06 22:01:00,
2013-03-06 16:11:00,34.0,19.0,30.35,NW,310,9.0,-999.0,55,-99.99,,,-99.99,,2013-03-06 22:11:00,
2013-03-06 16:21:00,34.0,19.0,30.35,NW,310,9.0,-999.0,55,-99.99,,,-99.99,,2013-03-06 22:21:00,
2013-03-06 16:32:00,34.0,19.0,30.35,NW,310,9.0,-999.0,55,-99.99,,,-99.99,,2013-03-06 22:32:00,
2013-03-06 16:41:00,34.0,19.0,30.35,NW,320,8.0,-999.0,55,-99.99,,,-99.99,,2013-03-06 22:41:00,
2013-03-06 16:52:00,34.0,19.0,30.35,NW,320,8.0,-999.0,55,-99.99,,,-99.99,,2013-03-06 22:52:00,
2013-03-06 17:01:00,32.0,19.0,30.35,NNW,330,8.0,-999.0,59,-99.99,,,-99.99,,2013-03-06 23:01:00,
2013-03-06 17:11:00,32.0,19.0,30.35,NNW,330,8.0,-999.0,59,-99.99,,,-99.99,,2013-03-06 23:11:00,
2013-03-06 17:21:00,32.0,19.0,30.35,NW,320,8.0,-999.0,59,-99.99,,,-99.99,,2013-03-06 23:21:00,
2013-03-06 17:32:00,32.0,19.0,30.35,NNW,330,9.0,-999.0,59,-99.99,,,-99.99,,2013-03-06 23:32:00,
2013-03-06 17:42:00,32.0,19.0,30.35,NNW,330,8.0,-999.0,59,-99.99,,,-99.99,,2013-03-06 23:42:00,
2013-03-06 17:52:00,32.0,19.0,30.35,NNW,330,8.0,-999.0,59,-99.99,,,-99.99,,2013-03-06 23:52:00,
2013-03-06 18:01:00,32.0,19.0,30.35,NNW,330,7.0,-999.0,59,-99.99,,,-99.99,,2013-03-07 00:01:00,
2013-03-06 18:11:00,32.0,19.0,30.35,NNW,330,7.0,-999.0,59,-99.99,,,-99.99,,2013-03-07 00:11:00,
2013-03-06 18:21:00,30.0,19.0,30.35,NW,320,5.0,-999.0,63,-99.99,,,-99.99,,2013-03-07 00:21:00,
2013-03-06 18:32:00,30.0,19.0,30.35,NW,320,5.0,-999.0,63,-99.99,,,-99.99,,2013-03-07 00:32:00,
2013-03-06 18:41:00,30.0,18.0,30.34,NNE,20,5.0,-999.0,59,-99.99,,,-99.99,,2013-03-07 00:41:00,
2013-03-06 18:52:00,30.0,18.0,30.34,North,10,3.0,-999.0,59,-99.99,,,-99.99,,2013-03-07 00:52:00,
2013-03-06 19:01:00,28.0,18.0,30.34,North,0,0.0,-999.0,63,-99.99,,,-99.99,,2013-03-07 01:01:00,
2013-03-06 19:11:00,28.0,18.0,30.34,North,0,0.0,-999.0,63,-99.99,,,-99.99,,2013-03-07 01:11:00,
2013-03-06 19:21:00,28.0,18.0,30.34,NNW,340,6.0,-999.0,63,-99.99,,,-99.99,,2013-03-07 01:21:00,
2013-03-06 19:31:00,28.0,18.0,30.34,NNW,340,6.0,-999.0,63,-99.99,,,-99.99,,2013-03-07 01:31:00,
2013-03-06 19:41:00,28.0,18.0,30.35,North,0,0.0,-999.0,63,-99.99,,,-99.99,,2013-03-07 01:41:00,
2013-03-06 19:52:00,27.0,18.0,30.35,NW,320,3.0,-999.0,68,-99.99,,,-99.99,,2013-03-07 01:52:00,
2013-03-06 20:01:00,27.0,18.0,30.34,NNW,340,3.0,-999.0,68,-99.99,,,-99.99,,2013-03-07 02:01:00,
2013-03-06 20:11:00,27.0,18.0,30.34,NNW,340,3.0,-999.0,68,-99.99,,,-99.99,,2013-03-07 02:11:00,
2013-03-06 20:21:00,27.0,18.0,30.34,North,350,3.0,-999.0,68,-99.99,,,-99.99,,2013-03-07 02:21:00,
2013-03-06 20:32:00,27.0,18.0,30.34,North,0,0.0,-999.0,68,-99.99,,,-99.99,,2013-03-07 02:32:00,
2013-03-06 20:41:00,27.0,18.0,30.34,North,0,0.0,-999.0,68,-99.99,,,-99.99,,2013-03-07 02:41:00,
2013-03-06 20:52:00,27.0,18.0,30.34,North,0,0.0,-999.0,68,-99.99,,,-99.99,,2013-03-07 02:52:00,
2013-03-06 21:02:00,27.0,18.0,30.34,North,0,0.0,-999.0,68,-99.99,,,-99.99,,2013-03-07 03:02:00,
2013-03-06 21:11:00,27.0,18.0,30.34,North,0,0.0,-999.0,68,-99.99,,,-99.99,,2013-03-07 03:11:00,
2013-03-06 21:21:00,25.0,18.0,30.35,North,0,0.0,-999.0,73,-99.99,,,-99.99,,2013-03-07 03:21:00,
2013-03-06 21:32:00,25.0,18.0,30.35,NNE,30,3.0,-999.0,73,-99.99,,,-99.99,,2013-03-07 03:32:00,
2013-03-06 21:42:00,25.0,18.0,30.35,North,0,0.0,-999.0,73,-99.99,,,-99.99,,2013-03-07 03:42:00,
2013-03-06 21:52:00,25.0,18.0,30.35,ENE,60,3.0,-999.0,73,-99.99,,,-99.99,,2013-03-07 03:52:00,
2013-03-06 22:01:00,23.0,18.0,30.35,ENE,70,5.0,-999.0,79,-99.99,,,-99.99,,2013-03-07 04:01:00,
2013-03-06 22:11:00,23.0,18.0,30.35,ENE,70,5.0,-999.0,79,-99.99,,,-99.99,,2013-03-07 04:11:00,
2013-03-06 22:21:00,23.0,18.0,30.35,ENE,70,5.0,-999.0,79,-99.99,,,-99.99,,2013-03-07 04:21:00,
2013-03-06 22:31:00,23.0,18.0,30.35,North,0,0.0,-999.0,79,-99.99,,,-99.99,,2013-03-07 04:31:00,
2013-03-06 22:42:00,23.0,18.0,30.35,North,0,0.0,-999.0,79,-99.99,,,-99.99,,2013-03-07 04:42:00,
2013-03-06 22:52:00,23.0,18.0,30.35,North,0,0.0,-999.0,79,-99.99,,,-99.99,,2013-03-07 04:52:00,
2013-03-06 23:02:00,21.0,16.0,30.34,NE,40,3.0,-999.0,79,-99.99,,,-99.99,,2013-03-07 05:02:00,
2013-03-06 23:12:00,21.0,16.0,30.34,NE,40,3.0,-999.0,79,-99.99,,,-99.99,,2013-03-07 05:12:00,
2013-03-06 23:22:00,23.0,16.0,30.34,NE,50,3.0,-999.0,73,-99.99,,,-99.99,,2013-03-07 05:22:00,
2013-03-06 23:32:00,23.0,18.0,30.34,North,0,0.0,-999.0,79,-99.99,,,-99.99,,2013-03-07 05:32:00,
2013-03-06 23:42:00,23.0,18.0,30.34,North,0,0.0,-999.0,79,-99.99,,,-99.99,,2013-03-07 05:42:00,
2013-03-06 23:52:00,21.0,16.0,30.34,North,0,0.0,-999.0,79,-99.99,,,-99.99,,2013-03-07 05:52:00,